Showing default

TDRS 13, 42915

Orbit data source: Space-Track

TDRS 13, 42915 is a payload satellite owned by GSFC (US) in GEO that was launched on Fri, 18 Aug 2017 UTC via an ATLAS V 401 launch vehicle from the Air Force Eastern Test Range (AFETR). Payload-class satellites include a variety of spacecraft equipped with specific instruments for various scientific and technological missions. These include communications satellites like Starlink; space stations such as the ISS; scientific satellites like the Hubble; Earth observation satellites from companies like Planet Labs, Umbra, and HawkEye 360; GPS; miniature CubeSats for education and research; and military/defense satellites.

Not visible in the next 10 days
Identifier
42915, 2017-047A
Orbit
GEO
Country
Flag of USUS
Related business
Manufacturer
Boeing/ES
Mission
Operational Civil Communications
Bus & Motor
BSS-601HP, R-4D-11-300
Mass
3,454 kg wet, ~2,000 kg dry
Launch date (UTC)
2017-08-18 (9 years ago)
Launch vehicle
ATLAS V 401
Launch site
Air Force Eastern Test Range (AFETR)
Object type
Payload
Rocket body
Debris
Shape & HBR
Box + 2 Pan, 12.5 m
Radar Cross Section
43.356 m², Large (>1 m²)

Expand to show TLE details & history
Last TLE update: 9 hours ago

TLE from 9 hours ago
0 TDRS 13
1 42915U 17047A   26072.62289331 -.00000097  00000-0  00000-0 0  9998
2 42915   3.4311   0.2774 0011006  98.5781 285.1646  1.00272371 31392
Epoch: 2026-03-13T14:56Z
TLE epoch observation values (Epoch: 2026-03-13T14:56:57.981Z)
Latitude
1.36237°
Longitude
-11.62062°
Altitude
35,773.819 km
Speed
3.076 km/s
True Right ascension
01h 35m 30s
True Declination
1° 21' 40"
Sunlit
Object was in daylight at epoch
Visualization orbit readout
Latitude
Unknown
Longitude
Unknown
Altitude
Unknown
Speed
Unknown
Apparent Right ascension
Unknown
Apparent Declination
Unknown
Sunlit
N/A
Visualization observer readout
Local Sidereal Time
04:33:14
Azimuth
Unknown
Elevation
Unknown
Doppler factor
Unknown
Orbital elements
Apogee altitude
35,833.903 km
Perigee altitude
35,741.088 km
Semi-major axis
42,165.632 km
Eccentricity
0.0011
Inclination
3.4311°
RAAN
0.2774°
Arg. of periapsis
98.5781°
True anomaly
285.04283°
Mean anomaly
285.1646°
Eccentric anomaly
285.10372°
Mean motion
0.25067 °/min
Orbital period
1,436.14 mins
BSTAR
0
Loading maneuver chart data...
Computing Atmospheric mass density...
Loading historical data...
Loading historical data...
Loading historical data...
Loading historical data...
Loading historical data...
Loading historical data...
Loading historical data...
Other satellites on launch #47 in the year 2017 (2017-08-18 UTC)

Documentation

Showing up to 5 results
|